Home   Weather   Anderson   Past weeks
Flag for USA

Past Weather in Anderson, South Carolina, USA — Yesterday and Last 2 Weeks

Now
74 °F

Clear.


Feels Like: 77 °F
Forecast: 88 / 62 °F
Wind: 5 mph from West

Location: Anderson County Airport

Current Time: May 20, 2019 at 10:49:37 pm

Latest Report: May 20, 2019 at 9:56 pm


Visibility: 10 mi

Pressure: 29.92 "Hg

Humidity: 60%

Dew Point: 59 °F

Location of AndersonLocation

Past Weather in Anderson — Graph

°F

Anderson Temperature Yesterday

Maximum temperature yesterday: 88 °F (at 2:56 pm)
Minimum temperature yesterday: 66 °F (at 6:56 am)
Average temperature yesterday: 77 °F

High & Low Weather Summary for the Past Weeks

 TemperatureHumidityPressure
High90 °F (May 18, 2:56 pm)97% (May 8, 6:56 am)30.19 "Hg (May 8, 6:56 am)
Low48 °F (May 14, 4:56 am)34% (May 13, 2:56 pm)29.70 "Hg (May 12, 6:56 pm)
Average71 °F72%29.97 "Hg
* Reported May 5 8:56 pm — May 20 8:56 pm, Anderson. Weather by CustomWeather, © 2019

Note: Actual official high and low records may vary slightly from our data, if they occured in-between our weather recording intervals... More about our weather records

Advertising

Anderson Weather History for the Previous 24 Hours

Scroll right to see more
 ConditionsComfort  
Time TempWeatherWind HumidityBarometerVisibility
8:56 pm
Mon, May 20
77 °FClear.7 mph52%29.92 "Hg10 mi
7:56 pm82 °FSunny.8 mph44%29.91 "Hg10 mi
6:56 pm85 °FSunny.9 mph43%29.90 "Hg10 mi
5:56 pm86 °FSunny.15 mph43%29.91 "Hg10 mi
4:56 pm87 °FSunny.13 mph45%29.91 "Hg10 mi
3:56 pm87 °FSunny.10 mph45%29.93 "Hg10 mi
2:56 pm86 °FSunny.12 mph46%29.96 "Hg10 mi
1:56 pm84 °FPassing clouds.9 mph51%29.99 "Hg10 mi
12:56 pm82 °FSunny.6 mph55%30.00 "Hg10 mi
11:56 am76 °FOvercast.5 mph69%30.03 "Hg10 mi
10:56 am74 °FLight rain. Overcast.6 mph74%30.03 "Hg10 mi
9:56 am75 °FPartly sunny.7 mph74%30.03 "Hg10 mi
8:56 am73 °FPassing clouds.7 mph79%30.02 "Hg10 mi
8:07 am70 °FScattered clouds.6 mph87%30.05 "Hg10 mi
7:56 am69 °FSunny.5 mph90%30.01 "Hg10 mi
7:08 am67 °FScattered clouds.No wind93%30.04 "Hg10 mi
6:56 am68 °FPartly sunny.No wind90%30.01 "Hg10 mi
6:37 am67 °FPartly sunny.No wind93%30.04 "Hg10 mi
5:56 am67 °FClear.6 mph90%29.99 "Hg10 mi
4:56 am68 °FClear.3 mph87%29.99 "Hg10 mi
3:56 am69 °FPassing clouds.6 mph84%29.98 "Hg10 mi
2:56 am70 °FPassing clouds.7 mph79%29.98 "Hg10 mi
1:56 am71 °FPassing clouds.5 mph73%29.98 "Hg10 mi
12:56 am68 °FClear.No wind82%29.98 "Hg10 mi
11:56 pm
Sun, May 19
70 °FClear.No wind76%29.98 "Hg10 mi
10:56 pm74 °FClear.3 mph67%29.98 "Hg10 mi
Weather by CustomWeather, © 2019

See weather overview